EHI
0 0 0 0 0 0 0 0 0 0 0 0 0 0 0 0 0 0 0 0 0 0 0 0 0 0 0 0 0 0 0 1 10 23 30 25 16 9 5 4 2 1 0 0
0 0 0 0 0 0 0 0 0 0 0 0 0 0 0 0 0 0 0 0 0 0 0 0 0 0 0 0 0 0 0 0 6 18 27 27 18 10 7 5 5 3 2 2
0 0 0 0 0 0 0 0 0 0 0 0 0 0 0 0 0 0 0 0 0 0 0 0 0 0 0 0 0 0 0 0 2 8 18 22 18 11 9 8 8 6 5 5
0 0 0 0 0 0 0 0 0 0 0 0 0 0 0 0 0 0 0 0 0 0 0 0 0 0 0 0 0 0 0 0 0 2 7 13 15 11 8 9 9 7 6 6
0 0 0 0 0 0 0 0 0 0 0 0 0 0 0 0 0 0 0 0 0 0 0 0 0 0 0 0 0 0 0 0 0 0 2 6 9 8 6 6 6 6 6 5
0 0 0 0 0 0 0 0 0 0 0 0 0 0 0 0 0 0 0 0 0 0 0 0 0 0 0 0 0 0 0 0 0 0 0 1 2 3 2 2 2 4 5 5
0 0 0 0 0 0 0 0 0 0 0 0 0 0 0 0 0 0 0 0 0 0 0 0 0 0 0 0 0 0 0 0 0 0 0 0 0 1 2 1 1 2 3 3
0 0 0 0 0 0 0 0 0 0 0 0 0 0 0 0 0 0 0 0 0 0 0 0 0 0 0 0 0 0 0 0 0 0 0 0 0 0 1 1 1 1 1 1
0 0 0 0 0 0 0 0 0 0 0 0 0 0 0 0 0 0 0 0 0 0 0 0 0 0 0 0 0 0 0 0 0 0 0 0 0 0 0 1 1 0 0 0
0 0 0 0 0 0 0 0 0 0 0 0 0 0 0 0 0 0 0 0 0 0 0 0 0 0 0 0 0 0 0 0 0 0 0 0 0 0 0 0 0 0 0 0
0 0 0 0 0 0 0 0 0 0 0 0 0 0 0 0 0 0 0 0 0 0 0 0 0 0 0 0 0 0 0 0 0 0 0 0 0 0 0 0 0 0 0 0
0 0 0 0 0 0 0 0 0 0 0 0 0 0 0 0 0 0 0 0 0 0 0 0 0 0 0 0 0 0 0 0 0 0 0 0 0 0 0 0 0 0 0 0
0 0 0 0 0 0 0 0 0 0 0 0 0 0 0 0 0 0 0 0 0 0 0 0 0 0 0 0 0 0 0 0 0 0 0 0 0 0 0 0 0 0 0 0
0 0 0 0 0 0 0 0 0 0 0 0 0 0 0 0 0 0 0 0 0 0 0 0 0 0 0 0 0 0 0 0 0 0 0 0 0 0 0 0 0 0 0 0
0 0 0 0 0 0 0 0 0 0 0 0 0 0 0 0 0 0 0 0 0 0 0 0 0 0 0 0 0 0 0 0 0 0 0 0 0 0 0 0 0 0 0 0
0 0 0 0 0 0 0 0 0 0 0 0 0 0 0 0 0 0 0 0 0 0 0 0 0 0 0 0 0 0 0 0 0 0 0 0 0 0 0 0 0 0 0 0
0 0 0 0 0 0 0 0 0 0 0 0 0 0 0 0 0 0 0 0 0 0 0 0 0 0 0 0 0 0 0 0 0 0 0 0 0 0 0 0 0 0 0 0
0 0 0 0 0 0 0 0 0 0 0 0 0 0 0 0 0 0 0 0 0 0 0 0 0 0 0 0 0 0 0 0 0 0 0 0 0 0 0 0 0 0 0 0
0 0 0 0 0 0 0 0 0 0 0 0 0 0 0 0 0 0 0 0 0 0 0 0 0 0 0 0 0 0 0 0 0 0 0 0 0 0 0 0 0 0 0 0
0 0 0 0 0 0 0 0 0 0 0 0 0 0 0 0 0 0 0 0 0 0 0 0 0 0 0 0 0 0 0 0 0 0 0 0 0 0 0 0 0 0 0 0
0 0 0 0 0 0 0 0 0 0 0 0 0 0 0 0 0 0 0 0 0 0 0 0 0 0 0 0 0 0 0 0 0 0 0 0 0 0 0 0 0 0 0 0
0 0 0 0 0 0 0 0 0 0 0 0 0 0 0 0 0 0 0 0 0 0 0 0 0 0 0 0 0 0 0 0 0 0 0 0 0 0 0 0 0 0 0 0
0 0 0 0 0 0 0 0 0 0 0 0 0 0 0 0 0 0 0 0 0 0 0 0 0 0 0 0 0 0 0 0 0 0 0 0 0 0 0 0 0 0 0 0
0 0 0 0 0 0 0 0 0 0 0 0 0 0 0 0 0 0 0 0 0 0 0 0 0 0 0 0 0 0 0 0 0 0 0 0 0 0 0 0 0 0 0 0
0 0 0 0 0 0 0 0 0 0 0 0 0 0 0 0 0 0 0 0 0 0 0 0 0 0 0 0 0 0 0 0 0 0 0 0 0 0 0 0 0 0 0 0
0 0 0 0 0 0 0 0 0 0 0 0 0 0 0 0 0 0 0 0 0 0 0 0 0 0 0 0 0 0 0 0 0 0 0 0 0 0 0 0 0 0 0 0
Wind_Speed
5 5 8 9 6 4 7 6 3 3 1 2 5 8 12 9 7 9 11 11 11 11 9 7 7 8 7 7 8 9 9 10 9 7 9 10 11 10 10 10 12 12 12 12
5 6 5 7 7 5 5 4 2 1 3 2 5 10 12 8 7 8 9 10 10 10 10 8 7 6 7 7 8 8 9 9 9 9 9 7 8 8 10 8 10 12 12 13
4 3 7 7 7 6 3 4 3 1 3 3 6 9 7 4 4 5 6 6 7 8 10 9 7 6 6 6 7 7 8 9 9 9 6 3 3 2 5 7 9 11 13 13
3 2 6 8 7 6 4 3 4 3 3 3 4 6 9 4 7 4 6 6 6 6 5 6 6 6 5 5 5 5 6 7 7 7 7 9 9 10 10 10 10 11 13 14
3 3 6 6 5 6 4 4 5 4 3 2 1 2 10 4 4 5 7 7 7 6 6 6 6 6 5 5 4 4 4 5 6 6 8 10 11 10 7 6 8 9 9 12
3 2 3 4 4 6 8 6 6 5 4 2 3 4 8 3 2 6 7 8 8 8 8 8 8 7 7 7 6 5 4 4 4 5 7 9 11 10 8 8 9 9 7 8
4 3 2 4 7 4 4 5 2 3 2 5 2 3 11 6 4 4 5 6 6 7 8 9 10 10 9 9 8 7 6 6 5 5 6 8 10 10 12 11 11 9 7 8
5 3 1 2 5 6 4 5 5 4 3 4 1 7 9 5 5 3 2 3 6 8 8 8 8 8 8 8 8 8 8 8 7 6 6 6 7 6 7 9 8 9 9 8
5 3 2 2 3 8 6 3 4 6 2 3 5 7 9 3 1 2 4 6 8 8 8 8 8 8 8 9 8 8 8 8 8 7 6 6 6 6 7 7 6 5 4 4
6 6 2 2 5 5 5 7 5 5 3 3 5 5 5 3 2 5 7 8 8 8 9 9 8 9 8 8 8 7 7 7 7 7 6 4 4 4 4 3 4 4 5 6
4 6 3 2 3 5 4 4 5 4 3 3 3 7 5 5 1 3 6 7 7 8 8 8 9 9 9 8 7 7 7 7 7 6 5 4 2 1 1 2 4 5 6 9
3 5 3 1 1 3 4 6 6 5 3 3 2 10 4 4 2 4 7 7 7 7 7 8 9 9 9 9 8 8 7 7 6 5 4 3 2 2 3 4 5 7 8 9
5 6 5 1 1 0 2 4 4 5 5 4 4 10 3 2 5 6 6 7 7 7 8 8 9 9 9 9 8 8 7 6 5 4 4 4 4 4 5 6 7 8 10 10
6 5 5 6 4 5 4 5 6 6 4 5 9 10 10 10 10 10 7 6 5 6 7 8 8 8 8 8 7 7 7 6 5 5 5 6 6 6 7 8 10 10 11 12
5 4 2 2 2 3 5 6 8 9 8 8 8 8 13 11 10 8 5 5 6 6 7 8 8 8 8 8 7 7 7 7 6 7 7 8 8 9 10 11 12 12 13 13
4 4 2 1 1 3 5 8 10 10 9 11 10 14 14 9 5 4 4 4 5 6 7 7 8 8 8 7 6 6 7 7 7 8 9 9 11 12 12 12 13 13 13 13
3 4 2 1 2 1 7 10 13 8 8 9 13 13 9 8 7 4 3 3 4 5 5 6 6 6 6 6 5 6 7 8 9 9 9 10 11 12 12 12 13 13 13 13
6 4 2 0 1 6 7 2 7 8 8 10 10 10 8 6 3 1 0 1 2 3 4 5 5 5 5 5 5 6 7 8 9 9 10 10 11 12 11 12 12 12 10 11
5 5 2 1 2 7 7 3 6 6 6 7 11 12 8 1 1 2 2 1 1 2 2 3 3 4 5 6 6 7 8 8 9 9 9 9 10 10 10 11 11 10 10 10
3 4 3 2 2 5 4 1 2 3 4 3 5 7 4 1 2 2 3 3 2 3 3 4 4 5 6 6 6 8 8 8 8 8 8 8 9 9 10 10 9 8 8 9
4 3 4 4 4 8 7 2 3 2 3 2 3 4 3 4 3 3 5 3 3 3 4 4 5 5 5 5 6 8 8 7 7 7 8 9 9 9 9 9 8 8 8 9
7 6 6 5 5 8 3 5 5 5 2 2 2 2 3 3 4 5 5 5 4 4 4 4 5 5 5 5 6 7 7 6 6 8 8 8 8 7 7 8 8 7 7 8
7 7 5 7 8 4 2 5 4 2 3 3 2 2 3 4 5 5 5 5 5 4 4 4 5 5 5 5 5 7 5 5 7 8 8 8 8 7 7 7 7 6 5 5
4 4 3 5 7 6 7 6 5 4 4 2 2 3 4 5 6 6 6 6 5 5 4 4 5 5 5 5 5 5 5 5 7 8 7 6 7 7 6 5 5 4 4 4
4 5 4 5 6 6 4 2 2 1 1 1 1 2 4 6 6 7 7 6 6 5 5 5 5 5 5 5 5 4 5 6 7 7 6 6 6 5 5 5 4 4 2 3
4 5 5 5 3 3 4 2 1 1 2 2 2 2 3 6 7 7 7 6 6 6 5 5 5 5 5 5 5 4 4 5 7 6 5 4 4 4 4 4 4 8 6 8
Wind_Direction
148 162 185 183 173 154 151 151 178 228 325 318 272 278 280 275 265 264 267 271 273 271 267 256 243 241 239 235 229 227 222 222 210 200 205 209 214 213 211 213 211 205 202 195
140 204 177 147 143 126 127 132 163 294 0 354 304 282 271 264 250 249 262 273 280 286 290 281 264 249 236 232 227 226 225 225 215 208 207 207 210 214 215 213 210 207 202 197
147 158 148 144 155 156 148 153 167 209 355 32 339 304 295 314 321 306 298 291 293 289 293 299 298 277 261 250 237 231 226 227 223 216 205 190 184 195 202 208 212 209 203 199
116 132 151 156 166 153 183 173 146 118 54 336 26 317 296 322 326 342 347 345 331 321 311 311 315 312 295 274 262 244 237 233 229 215 203 199 205 212 213 212 213 208 203 201
143 143 145 161 161 138 135 104 99 98 106 341 340 228 284 336 346 345 343 348 350 351 352 351 345 331 325 319 309 287 264 250 242 225 213 209 217 222 218 210 211 208 205 202
87 87 124 138 114 120 120 84 70 58 69 278 223 193 279 286 283 312 328 343 353 359 7 7 2 0 352 348 346 337 316 287 266 243 230 220 222 221 214 210 211 210 204 201
83 50 63 106 95 88 111 105 55 1 4 254 191 213 254 266 275 277 304 332 349 360 5 2 359 355 349 344 342 338 330 311 297 267 245 234 230 224 219 216 215 211 206 205
129 140 161 117 135 146 147 139 159 194 233 284 216 239 256 266 290 293 290 328 353 356 355 351 344 339 333 330 331 330 325 314 308 294 272 255 243 233 229 222 216 212 212 210
133 114 49 84 106 125 125 122 135 120 117 285 268 276 298 269 293 351 348 355 352 345 343 341 338 335 328 322 317 315 312 310 310 304 291 276 257 240 233 225 216 211 199 170
121 109 96 105 81 49 128 136 110 125 161 265 292 269 253 261 305 342 345 340 332 337 340 339 337 332 325 315 309 311 309 302 303 306 299 288 275 261 243 213 199 175 154 142
97 111 104 101 146 155 117 109 107 109 149 170 283 279 225 206 240 317 314 315 323 332 334 333 330 327 323 321 320 320 319 318 319 317 316 311 304 292 183 164 156 145 136 138
108 107 115 123 346 179 150 156 144 150 193 173 208 271 272 218 255 290 303 314 325 333 335 335 332 333 335 334 333 333 329 329 327 329 341 350 20 72 97 112 121 124 126 127
124 109 104 58 347 120 170 165 152 128 124 158 201 265 298 308 308 307 312 321 329 337 343 343 343 343 341 340 341 342 341 342 345 6 28 36 48 71 87 100 106 110 113 113
107 109 153 181 209 175 190 185 165 143 167 201 229 261 289 299 307 312 319 323 328 339 346 346 345 343 342 343 346 348 351 356 11 34 53 59 63 73 83 90 94 99 104 105
96 116 162 204 190 168 197 192 186 194 194 205 236 244 270 282 292 299 309 325 336 346 349 349 347 342 344 349 355 3 7 10 31 53 61 68 72 77 80 84 88 91 93 96
95 119 126 318 232 211 233 221 207 215 219 236 259 274 270 275 277 284 308 328 334 341 343 346 349 349 351 353 2 15 24 28 48 63 68 74 79 81 82 85 88 90 91 92
118 127 126 288 310 338 260 224 201 201 206 204 234 248 270 287 289 288 303 325 329 336 344 351 351 351 355 3 22 40 42 49 58 65 68 74 81 84 85 89 88 89 90 91
129 126 133 237 3 248 246 217 184 201 228 216 234 255 268 273 285 241 207 302 325 344 351 353 353 2 13 25 43 54 56 60 64 67 70 75 82 85 86 87 87 87 87 87
134 136 147 188 268 280 289 239 171 185 256 225 230 255 267 282 307 239 151 110 50 17 14 11 18 31 38 44 54 63 62 63 67 69 72 76 83 86 87 87 87 87 89 86
106 116 147 188 251 257 258 258 157 134 272 247 214 249 258 194 282 259 136 112 82 60 51 46 46 54 56 54 64 72 68 66 67 70 74 76 80 85 86 86 85 82 84 85
157 168 194 207 244 266 254 222 132 190 236 248 235 247 227 211 218 137 127 116 102 85 73 66 64 61 59 64 75 76 72 69 71 75 76 76 78 81 84 83 82 86 88 85
178 185 195 188 217 254 243 148 186 229 261 257 251 236 215 176 130 134 138 131 123 106 90 83 79 68 58 66 81 83 75 74 78 80 78 74 72 76 80 83 80 81 88 89
195 194 189 200 221 243 232 219 239 226 252 255 230 220 167 160 164 156 148 143 135 124 112 102 98 85 68 65 84 92 85 88 89 85 79 76 73 69 72 82 86 80 79 88
228 186 199 250 262 260 259 256 255 234 236 247 219 194 173 172 165 159 153 150 144 137 130 122 113 103 89 80 85 93 96 92 91 87 81 78 78 73 66 66 75 85 87 89
221 174 202 247 272 291 282 258 258 241 210 179 161 179 179 164 164 162 159 159 154 147 141 135 128 120 114 108 99 96 99 102 96 89 84 79 78 82 75 68 74 89 98 129
207 186 192 228 244 249 282 312 300 230 236 205 176 166 163 167 164 157 158 157 153 150 145 138 133 130 126 120 110 105 108 113 111 102 92 89 89 83 80 77 63 66 76 73